Weather History for KFMN - January, 2014

Change the Weather History Date:

Monday, January 20, 2014

  Actual Average (KDRO) Record (KDRO)
Temperature  
Mean Temperature 33 °F 24 °F  
Max Temperature 52 °F 38 °F - ()
Min Temperature 14 °F 9 °F - ()
Degree Days  
Heating Degree Days 32 41  
Month to date heating degree days 837  
Since 1 July heating degree days 3711  
Cooling Degree Days 0 0  
Month to date cooling degree days 0  
Year to date cooling degree days 0  
Moisture  
Dew Point 12 °F    
Average Humidity 46    
Maximum Humidity 71    
Minimum Humidity 14    
Precipitation  
Precipitation 0.00 in 0.04 in - ()
Month to date precipitation 0.74  
Year to date precipitation 0.74  
Sea Level Pressure  
Sea Level Pressure 30.36 in    
Wind  
Wind Speed 6 mph (ENE)    
Max Wind Speed 14 mph    
Max Gust Speed -    
Visibility 10 miles    
Events      
T = Trace of Precipitation, MM = Missing Value Source: NWS Daily Summary

Daily Weather History Graph

Daily Weather History Graph

Search for Another Location

Airport or City:

Trip Planner

Search our weather history database for the weather conditions in past years. The results will help you decide how hot, cold, wet, or windy it might be!

Date:

Astronomy

Jan. 20, 2014 Rise Set
Actual Time 7:22 AM MST 5:25 PM MST
Civil Twilight 6:54 AM MST 5:53 PM MST
Nautical Twilight 6:23 AM MST 6:25 PM MST
Astronomical Twilight 5:52 AM MST 6:56 PM MST
Moon 9:55 PM MST (1/20) 9:31 AM MST (1/20)
Length of Visible Light 10h 58m
Length of Day
10h 03m
Waning Gibbous, 82% of the Moon is Illuminated
Jan 20
Waning Gibbous
Jan 23
Last Quarter
Jan 30
New
Feb 6
First Quarter
Feb 14
Full

Hourly Weather History & Observations

Time (MST) Temp. Windchill Dew Point Humidity Pressure Visibility Wind Dir Wind Speed Gust Speed Precip Events Conditions
12:53 AM 21.0 °F 13.4 °F 8.1 °F 57% 30.26 in 10.0 mi East 5.8 mph - N/A   Clear
1:53 AM 18.0 °F 9.8 °F 7.0 °F 62% 30.26 in 10.0 mi East 5.8 mph - N/A   Clear
2:53 AM 17.1 °F 10.0 °F 6.1 °F 62% 30.27 in 10.0 mi East 4.6 mph - N/A   Clear
3:53 AM 17.1 °F 7.6 °F 7.0 °F 65% 30.27 in 10.0 mi East 6.9 mph - N/A   Clear
4:53 AM 14.0 °F 8.2 °F 6.1 °F 71% 30.30 in 10.0 mi East 3.5 mph - N/A   Clear
5:53 AM 15.1 °F 6.4 °F 7.0 °F 70% 30.33 in 10.0 mi East 5.8 mph - N/A   Clear
6:53 AM 15.1 °F 6.4 °F 7.0 °F 70% 30.37 in 10.0 mi East 5.8 mph - N/A   Clear
7:53 AM 19.0 °F 10.0 °F 10.0 °F 68% 30.38 in 10.0 mi East 6.9 mph - N/A   Clear
8:53 AM 25.0 °F 17.1 °F 12.9 °F 60% 30.37 in 10.0 mi ESE 6.9 mph - N/A   Clear
9:53 AM 28.9 °F 23.9 °F 14.0 °F 54% 30.38 in 10.0 mi ESE 4.6 mph - N/A   Clear
10:53 AM 35.1 °F 31.0 °F 14.0 °F 42% 30.40 in 10.0 mi SE 4.6 mph - N/A   Clear
11:53 AM 39.9 °F 37.8 °F 15.1 °F 36% 30.36 in 10.0 mi Variable 3.5 mph - N/A   Clear
12:53 PM 45.0 °F 43.5 °F 15.1 °F 30% 30.33 in 10.0 mi Variable 3.5 mph - N/A   Clear
1:53 PM 46.9 °F - 15.1 °F 28% 30.31 in 10.0 mi Calm Calm - N/A   Clear
2:53 PM 50.0 °F - 16.0 °F 26% 30.30 in 10.0 mi West 9.2 mph - N/A   Clear
3:53 PM 52.0 °F - 15.1 °F 23% 30.30 in 10.0 mi West 13.8 mph - N/A   Clear
4:53 PM 48.9 °F - 15.1 °F 26% 30.33 in 10.0 mi West 12.7 mph - N/A   Clear
5:53 PM 42.1 °F 36.6 °F 14.0 °F 32% 30.38 in 10.0 mi WSW 9.2 mph - N/A   Clear
6:53 PM 39.9 °F 37.8 °F 14.0 °F 35% 30.40 in 10.0 mi WSW 3.5 mph - N/A   Clear
7:53 PM 30.9 °F 23.5 °F 12.0 °F 46% 30.46 in 10.0 mi North 8.1 mph - N/A   Clear
8:53 PM 28.9 °F 22.8 °F 12.0 °F 49% 30.48 in 10.0 mi North 5.8 mph - N/A   Clear
9:53 PM 27.0 °F 18.7 °F 12.0 °F 53% 30.50 in 10.0 mi East 8.1 mph - N/A   Clear
10:53 PM 26.1 °F 18.4 °F 12.0 °F 55% 30.49 in 10.0 mi East 6.9 mph - N/A   Clear
11:53 PM 26.1 °F 20.5 °F 12.9 °F 58% 30.50 in 10.0 mi ENE 4.6 mph - N/A   Clear